Location: Feigenhofen
(48.4939°N, 10.7793°E)
Time: 15:59:43
(UTC+00:00)

Cosmos 1536 Rocket - Pass Details

Date: 26 May 2022
Orbit: 604 x 632 km, 82.5° (Epoch: 29 June)

Event Time Altitude Azimuth Distance (km) Brightness Sun altitude
Exits shadow 02:08:07 14° 214° (SW) 1,744 5.2 -10.3°
Maximum altitude 02:11:42 45° 284° (WNW) 847 4.1 -9.9°
Drops below altitude 10° 02:15:57 10° 358° (N) 1,990 6.9 -9.4°
Sets 02:18:16 0° 5° (N) 2,895 7.9 -9.2°
